Regional Weather Roundup
Issued by NWS Cleveland, OH

Home | Current Version | Previous Version | Graphics & Text | Print | Product List | Glossary On
Versions: 1 2 3 4 5 6 7 8 9 10 11 12 13 14 15 16 17 18 19 20 21 22 23 24 25 26 27 28 29 30 31 32 33 34 35 36 37 38 39 40 41 42 43 44 45 46 47 48 49 50
000
ASUS41 KCLE 111812
RWRCLE
OHIO REGIONAL WEATHER ROUNDUP
NATIONAL WEATHER SERVICE WILMINGTON, OH
100 PM EST MON DEC 11 2017

NOTE: "FAIR" INDICATES FEW OR NO CLOUDS BELOW 12,000 FEET WITH NO
SIGNIFICANT WEATHER AND/OR OBSTRUCTIONS TO VISIBILITY.

OHZ001>008-015>018-024>027-034-035-043-044-111900-
   NORTHWEST OHIO

CITY           SKY/WX    TMP DP  RH WIND       PRES   REMARKS
DEFIANCE       CLOUDY    32  22  66 S10       29.90F WCI  24
FINDLAY        CLOUDY    33  20  58 S14       29.90F WCI  23
TOLEDO EXPRESS CLOUDY    30  26  85 S6        29.91F WCI  24
TOLEDO EXEC    CLOUDY    31  25  78 S9        29.92F WCI  23
LIMA           CLOUDY    33  24  69 S16       29.89F WCI  23
$$

OHZ009>014-019>023-028>033-038-089-111900-
   NORTHEAST OHIO

CITY           SKY/WX    TMP DP  RH WIND       PRES   REMARKS
CLE-HOPKINS    LGT SNOW  30  23  75 S5        29.96F WCI  25
CLE-LAKEFRONT  LGT SNOW  30  23  75 SW9       29.95F WCI  22
CUY CO. ARPT   LGT SNOW  30  16  55 S12       29.95S WCI  21
LORAIN-ELYRIA  CLOUDY    29  17  61 SW6       29.94F WCI  23
ASHTABULA      CLOUDY    30  20  66 SW8       29.94F WCI  22
AKRON-CANTON   CLOUDY    32  16  51 SW10      29.93F WCI  24
WOOSTER        CLOUDY    30  17  58 S8        29.93F WCI  22
MANSFIELD      CLOUDY    31  21  66 S15       29.91F WCI  20
YOUNGSTOWN     CLOUDY    31  18  58 SW10      29.92F WCI  22
$$

OHZ042-051>053-060>062-070>072-077>081-111900-
  SOUTHWEST OHIO

CITY           SKY/WX    TMP DP  RH WIND       PRES   REMARKS
CINC-COVINGTON PTSUNNY   40  28  62 SW10      29.92F
CINC-LUNKEN    FAIR      43  28  55 S10G17    29.95F
HAMILTON       FAIR      41  27  57 SW9       29.93F
DAYTON         PTSUNNY   34  27  75 S9        29.89F WCI  27
WRIGHT-PAT AFB PTSUNNY   36  26  67 S12       29.91F
DAYTON GENERAL FAIR      36  25  64 S13G22    29.90F
WILMINGTON     FAIR      37  29  72 SW14      29.92F
$$

OHZ036-037-039>041-045>050-054>059-063>069-073>076-082>088-111900-
  CENTRAL AND SOUTHEAST OHIO

CITY           SKY/WX    TMP DP  RH WIND       PRES   REMARKS
COLUMBUS       CLOUDY    35  24  64 SE13      29.94F WCI  26
OSU AIRPORT    PTSUNNY   35  25  66 S9        29.93F WCI  28
BOLTON FIELD   PTSUNNY   36  25  64 S9        29.95F
RICKENBACK AFB FAIR      36  24  62 S12       29.95F
NEWARK         CLOUDY    35  22  58 S12       29.95F WCI  27
MARION         NOT AVBL
LANCASTER      PTSUNNY   38  24  57 SW7       29.95F
ZANESVILLE     FAIR      37  21  52 S12       29.95F
NEW PHILLY     CLOUDY    33  21  61 S7        29.97F WCI  27
$$




USA.gov is the U.S. government's official web portal to all federal, state and local government web resources and services.